Weather History for Havre, MT

Change the Weather History Date:

Tuesday, October 15, 2013

  Actual Average Record
Temperature  
Mean Temperature 41 °F 45 °F  
Max Temperature 58 °F 59 °F 85 °F (1961)
Min Temperature 23 °F 31 °F 10 °F (1899)
Degree Days  
Heating Degree Days 24 20  
Month to date heating degree days 289 259  
Since 1 July heating degree days 457 616  
Cooling Degree Days 0 0  
Month to date cooling degree days 0 0  
Year to date cooling degree days 445 386  
Moisture  
Dew Point 25 °F    
Average Humidity 62    
Maximum Humidity 96    
Minimum Humidity 28    
Precipitation  
Precipitation 0.00 in 0.02 in 0.72 in (1938)
Month to date precipitation 0.01 0.33  
Year to date precipitation 17.16 10.12  
Snow  
Snow 0.00 in 0.00 in 0.50 in (1930)
Month to date snowfall 0.0 0.7  
Since 1 July snowfall 0.0 1.0  
Since 1 September snowfall 0.0 1.0  
Snow Depth 0.00 in    
Sea Level Pressure  
Sea Level Pressure 30.25 in    
Wind  
Wind Speed 11 mph (SW)    
Max Wind Speed 23 mph    
Max Gust Speed 30 mph    
Visibility 10 miles    
Events      
T = Trace of Precipitation, MM = Missing Value Source: NWS Daily Summary

Daily Weather History Graph

Daily Weather History Graph

Search for Another Location

Airport:

Trip Planner

Search our weather history database for the weather conditions in past years. The results will help you decide how hot, cold, wet, or windy it might be!

Date:

Astronomy

Oct. 15, 2013 Rise Set
Actual Time 7:39 AM MDT 6:29 PM MDT
Civil Twilight 7:07 AM MDT 7:00 PM MDT
Nautical Twilight 6:31 AM MDT 7:37 PM MDT
Astronomical Twilight 5:55 AM MDT 8:13 PM MDT
Moon 4:48 PM MDT (10/15) 3:50 AM MDT (10/15)
Length of Visible Light 11h 52m
Length of Day
10h 49m
Waxing Gibbous, 88% of the Moon is Illuminated
Oct 15
Waxing Gibbous
Oct 18
Full
Oct 26
Last Quarter
Nov 3
New
Nov 9
First Quarter

Hourly Weather History & Observations

Time (MDT) Temp. Windchill Dew Point Humidity Pressure Visibility Wind Dir Wind Speed Gust Speed Precip Events Conditions
12:53 AM 28.0 °F 20.0 °F 25.0 °F 88% 30.45 in 10.0 mi SW 8.1 mph - N/A   Clear
1:53 AM 26.1 °F 19.4 °F 21.9 °F 84% 30.44 in 10.0 mi WSW 5.8 mph - N/A   Clear
2:53 AM 23.0 °F 17.0 °F 21.0 °F 92% 30.44 in 10.0 mi West 4.6 mph - N/A   Clear
3:53 AM 24.1 °F 17.0 °F 21.0 °F 88% 30.43 in 10.0 mi West 5.8 mph - N/A   Clear
4:53 AM 23.0 °F 14.7 °F 21.0 °F 92% 30.42 in 10.0 mi SW 6.9 mph - N/A   Clear
5:53 AM 25.0 °F 18.1 °F 23.0 °F 92% 30.40 in 10.0 mi West 5.8 mph - N/A   Clear
6:53 AM 25.0 °F 15.5 °F 23.0 °F 92% 30.38 in 10.0 mi SW 9.2 mph - N/A   Clear
7:53 AM 26.1 °F 21.9 °F 23.0 °F 88% 30.39 in 10.0 mi SW 3.5 mph - N/A   Clear
8:53 AM 30.9 °F 22.8 °F 28.0 °F 89% 30.37 in 10.0 mi SW 9.2 mph - N/A   Clear
9:53 AM 37.9 °F 32.1 °F 30.9 °F 76% 30.35 in 10.0 mi SW 8.1 mph - N/A   Clear
10:53 AM 46.9 °F - 30.9 °F 54% 30.32 in 10.0 mi SW 12.7 mph - N/A   Clear
11:53 AM 51.1 °F - 28.0 °F 41% 30.27 in 10.0 mi SW 20.7 mph - N/A   Clear
12:53 PM 54.0 °F - 26.1 °F 34% 30.24 in 10.0 mi SW 19.6 mph - N/A   Clear
1:53 PM 55.9 °F - 25.0 °F 30% 30.20 in 10.0 mi SW 18.4 mph 26.5 mph N/A   Clear
2:53 PM 57.0 °F - 26.1 °F 30% 30.17 in 10.0 mi SW 18.4 mph 25.3 mph N/A   Clear
3:53 PM 57.9 °F - 26.1 °F 30% 30.14 in 10.0 mi SW 17.3 mph 23.0 mph N/A   Clear
4:53 PM 57.9 °F - 25.0 °F 28% 30.12 in 10.0 mi SW 13.8 mph - N/A   Clear
5:53 PM 54.0 °F - 25.0 °F 33% 30.11 in 10.0 mi SSW 8.1 mph - N/A   Clear
6:53 PM 45.0 °F 40.1 °F 24.1 °F 44% 30.12 in 10.0 mi South 9.2 mph - N/A   Clear
7:53 PM 37.9 °F 32.1 °F 24.1 °F 57% 30.12 in 10.0 mi SW 8.1 mph - N/A   Clear
8:53 PM 35.1 °F 27.9 °F 24.1 °F 64% 30.10 in 10.0 mi SW 9.2 mph - N/A   Clear
9:53 PM 36.0 °F 28.5 °F 24.1 °F 62% 30.08 in 10.0 mi SW 10.4 mph - N/A   Clear
10:53 PM 35.1 °F 27.4 °F 24.1 °F 64% 30.06 in 10.0 mi SW 10.4 mph - N/A   Clear
11:53 PM 45.0 °F 38.9 °F 25.0 °F 46% 30.04 in 10.0 mi SW 12.7 mph - N/A   Clear